Weather History for KMDT - November, 2014

Change the Weather History Date:

Wednesday, November 26, 2014

  Actual Average Record
Temperature  
Mean Temperature 37 °F 40 °F  
Max Temperature 42 °F 49 °F 70 °F (1979)
Min Temperature 32 °F 32 °F 13 °F (1938)
Degree Days  
Heating Degree Days 28 25  
Month to date heating degree days 609 524  
Since 1 July heating degree days 888 936  
Cooling Degree Days 0 0  
Month to date cooling degree days 0 0  
Year to date cooling degree days 1050 1002  
Moisture  
Dew Point 32 °F    
Average Humidity 79    
Maximum Humidity 100    
Minimum Humidity 57    
Precipitation  
Precipitation 0.78 in 0.11 in 1.29 in (2013)
Month to date precipitation 2.75 2.72  
Year to date precipitation 40.39 37.00  
Snow  
Snow 2.40 in - - ()
Month to date snowfall 2.4  
Since 1 July snowfall 2.4  
Since 1 September snowfall 2.4  
Snow Depth 0.00 in    
Sea Level Pressure  
Sea Level Pressure 30.02 in    
Wind  
Wind Speed 7 mph (NNW)    
Max Wind Speed 16 mph    
Max Gust Speed 21 mph    
Visibility 5 miles    
Events Fog , Rain , Snow    
T = Trace of Precipitation, MM = Missing Value Source: NWS Daily Summary

Daily Weather History Graph

Daily Weather History Graph

Search for Another Location

Airport or City:

Trip Planner

Search our weather history database for the weather conditions in past years. The results will help you decide how hot, cold, wet, or windy it might be!

Date:

Astronomy

Nov. 26, 2014 Rise Set
Actual Time 7:04 AM EST 4:43 PM EST
Civil Twilight 6:35 AM EST 5:13 PM EST
Nautical Twilight 6:01 AM EST 5:46 PM EST
Astronomical Twilight 5:29 AM EST 6:19 PM EST
Moon 10:35 AM EST (11/26) 9:13 PM EST (11/26)
Length of Visible Light 10h 38m
Length of Day
9h 38m
Waxing Crescent, 21% of the Moon is Illuminated
Nov 26
Waxing Crescent
Nov 29
First Quarter
Dec 6
Full
Dec 14
Last Quarter
Dec 21
New

Hourly Weather History & Observations

Time (EST) Temp. Windchill Dew Point Humidity Pressure Visibility Wind Dir Wind Speed Gust Speed Precip Events Conditions
12:56 AM 39.9 °F 35.8 °F 34.0 °F 79% 30.17 in 10.0 mi NNW 5.8 mph - N/A   Overcast
1:56 AM 41.0 °F - 34.0 °F 76% 30.19 in 10.0 mi Calm Calm - N/A   Overcast
2:56 AM 41.0 °F 37.1 °F 33.1 °F 73% 30.16 in 10.0 mi NNW 5.8 mph - N/A   Overcast
3:56 AM 41.0 °F 39.0 °F 30.9 °F 67% 30.16 in 10.0 mi NNW 3.5 mph - N/A   Overcast
4:56 AM 42.1 °F 39.2 °F 28.9 °F 60% 30.12 in 10.0 mi North 4.6 mph - N/A   Overcast
5:56 AM 41.0 °F 36.4 °F 30.9 °F 67% 30.12 in 10.0 mi NW 6.9 mph - 0.01 in Rain Light Rain
6:36 AM 41.0 °F - 30.9 °F 67% 30.11 in 7.0 mi Calm Calm - 0.02 in Rain Light Rain
6:56 AM 39.0 °F 36.8 °F 34.0 °F 82% 30.12 in 8.0 mi East 3.5 mph - 0.03 in Rain Light Rain
7:56 AM 39.0 °F 35.7 °F 35.1 °F 86% 30.11 in 3.0 mi NNE 4.6 mph - 0.05 in Rain Light Rain
8:35 AM 37.9 °F 32.7 °F 34.0 °F 86% 30.09 in 3.0 mi NE 6.9 mph - 0.03 in Rain Rain
8:56 AM 36.0 °F 31.1 °F 33.1 °F 89% 30.13 in 3.0 mi NE 5.8 mph - 0.07 in Rain Light Rain
9:09 AM 35.1 °F 30.1 °F 33.1 °F 92% 30.12 in 1.5 mi NNE 5.8 mph - 0.03 in Rain , Snow Snow
9:24 AM 33.1 °F 30.0 °F 30.9 °F 92% 30.10 in 1.5 mi ENE 3.5 mph - 0.08 in Rain , Snow Light Snow
9:56 AM 33.1 °F - 32.0 °F 96% 30.13 in 0.8 mi Calm Calm - 0.15 in Snow Light Snow
10:56 AM 32.0 °F 27.5 °F 32.0 °F 100% 30.09 in 0.5 mi NW 4.6 mph - 0.13 in Fog , Snow Snow
11:29 AM 32.0 °F 28.7 °F 32.0 °F 100% 30.05 in 0.8 mi NNW 3.5 mph - 0.08 in Snow Light Snow
11:56 AM 32.0 °F 26.4 °F 32.0 °F 100% 30.05 in 0.8 mi NW 5.8 mph - 0.12 in Snow Light Snow
12:05 PM 32.0 °F 27.5 °F 32.0 °F 100% 30.02 in 0.5 mi NNW 4.6 mph - N/A Fog , Snow Snow
12:56 PM 33.1 °F 28.7 °F 30.9 °F 92% 30.00 in 0.8 mi NNW 4.6 mph - 0.07 in Snow Light Snow
1:47 PM 32.0 °F 27.5 °F 32.0 °F 100% 29.93 in 0.8 mi NNW 4.6 mph - 0.04 in Snow Light Snow
1:56 PM 32.0 °F 27.5 °F 32.0 °F 100% 29.95 in 0.8 mi WNW 4.6 mph - 0.04 in Snow Light Snow
2:16 PM 33.1 °F 26.9 °F 32.0 °F 96% 29.94 in 3.0 mi NW 6.9 mph - 0.00 in Snow Light Snow
2:56 PM 34.0 °F 26.0 °F 32.0 °F 92% 29.95 in 4.0 mi NW 10.4 mph - 0.01 in Snow Light Snow
3:27 PM 33.1 °F 24.4 °F 32.0 °F 96% 29.93 in 1.0 mi NW 11.5 mph - 0.02 in Snow Light Snow
3:56 PM 33.1 °F 24.9 °F 32.0 °F 96% 29.94 in 1.5 mi NW 10.4 mph - 0.04 in Snow Light Snow
4:15 PM 33.1 °F 24.4 °F 32.0 °F 96% 29.94 in 2.5 mi WNW 11.5 mph - 0.00 in Snow Light Snow
4:37 PM 34.0 °F 24.2 °F 32.0 °F 92% 29.94 in 4.0 mi WNW 15.0 mph - 0.01 in Snow Light Snow
4:56 PM 34.0 °F 23.8 °F 32.0 °F 92% 29.95 in 4.0 mi NW 16.1 mph - 0.02 in Snow Light Snow
5:56 PM 34.0 °F 24.6 °F 32.0 °F 92% 29.96 in 3.0 mi NW 13.8 mph - 0.02 in Snow Light Snow
6:56 PM 34.0 °F 24.6 °F 32.0 °F 92% 29.95 in 7.0 mi NW 13.8 mph - 0.02 in Snow Light Snow
7:26 PM 34.0 °F 26.0 °F 30.9 °F 89% 29.94 in 8.0 mi NW 10.4 mph - 0.00 in Snow Light Snow
7:56 PM 34.0 °F 25.0 °F 30.9 °F 89% 29.95 in 9.0 mi NW 12.7 mph - 0.00 in Snow Light Snow
8:13 PM 34.0 °F 26.0 °F 30.9 °F 89% 29.94 in 9.0 mi NW 10.4 mph - 0.00 in Snow Light Snow
8:41 PM 34.0 °F 27.2 °F 30.9 °F 89% 29.93 in 10.0 mi NW 8.1 mph - 0.00 in Snow Light Snow
8:56 PM 34.0 °F 27.2 °F 30.0 °F 85% 29.94 in 10.0 mi NW 8.1 mph - 0.00 in   Overcast
9:38 PM 34.0 °F 25.0 °F 30.0 °F 85% 29.94 in 10.0 mi NW 12.7 mph - N/A   Overcast
9:56 PM 34.0 °F 26.0 °F 30.0 °F 85% 29.95 in 10.0 mi NW 10.4 mph - N/A   Overcast
10:56 PM 34.0 °F 25.5 °F 30.0 °F 85% 29.98 in 10.0 mi NW 11.5 mph - N/A   Overcast
11:56 PM 34.0 °F 29.8 °F 28.9 °F 82% 29.98 in 10.0 mi NNW 4.6 mph - N/A   Overcast